Location: Unspecified
(50.7693°N, 0.0000°E)
Time: 09:23:08
(UTC+00:00)

Transit 2A - Visible Passes

Search period start: 14 August 2020 00:00
Search period end: 24 August 2020 00:00
Orbit: 591 x 967 km, 66.7° (Epoch: 13 August)

Date Brightness Start Highest point End Pass type
(mag) Time Alt. Az. Time Alt. Az. Time Alt. Az.
14 Aug 9.1 00:20:03 10° NW 00:24:37 20° N 00:29:09 10° NE visible
14 Aug 8.1 02:03:54 10° NNW 02:09:46 36° NE 02:15:27 10° E visible
14 Aug 6.4 03:47:14 10° NW 03:53:38 74° WSW 03:59:39 10° SSE visible
14 Aug 7.2 20:13:52 10° SW 20:19:49 57° NW 20:26:07 10° NE visible
14 Aug 8.8 21:59:29 10° WNW 22:04:27 24° NNW 22:09:32 10° NNE visible
14 Aug 9.1 23:45:35 10° NW 23:50:00 19° N 23:54:25 10° NE visible
15 Aug 8.3 01:29:43 10° NNW 01:35:19 31° NNE 01:40:47 10° E visible
15 Aug 6.5 03:13:02 10° NW 03:19:28 87° NE 03:25:33 10° SE visible
15 Aug 8.6 21:24:43 10° W 21:29:56 27° NNW 21:35:17 10° NNE visible
15 Aug 9.1 23:11:00 10° NW 23:15:22 19° N 23:19:45 10° NE visible
16 Aug 8.5 00:55:30 10° NNW 01:00:50 27° NNE 01:06:03 10° E visible
16 Aug 6.8 02:38:51 10° NW 02:45:16 70° NE 02:51:19 10° SE visible
16 Aug 8.4 20:50:00 10° W 20:55:26 31° NNW 21:01:05 10° NNE visible
16 Aug 9.1 22:36:20 10° NW 22:40:45 19° N 22:45:11 10° NE visible
17 Aug 8.7 00:21:14 10° NNW 00:26:18 24° NNE 00:31:16 10° ENE visible
17 Aug 7.1 02:04:40 10° NNW 02:10:59 55° NE 02:16:58 10° ESE visible
17 Aug 6.8 03:48:18 10° NW 03:54:09 40° WSW 03:59:40 10° S visible
17 Aug 8.1 20:15:20 10° WSW 20:21:00 37° NW 20:26:54 10° NNE visible
17 Aug 9.0 22:01:36 10° NW 22:06:08 20° N 22:10:43 10° NE visible
17 Aug 8.8 23:46:56 10° NNW 23:51:44 21° NNE 23:56:28 10° ENE visible
18 Aug 7.5 01:30:31 10° NNW 01:36:39 45° NE 01:42:30 10° ESE visible
18 Aug 6.5 03:13:59 10° NW 03:20:08 53° WSW 03:25:55 10° SSE visible
18 Aug 7.8 19:40:46 10° WSW 19:46:37 44° NW 19:52:45 10° NNE visible
18 Aug 8.9 21:26:48 10° WNW 21:31:32 21° NNW 21:36:20 10° NNE visible
18 Aug 8.9 23:12:33 10° NW 23:17:09 20° N 23:21:41 10° ENE visible
19 Aug 7.8 00:56:21 10° NNW 01:02:16 37° NE 01:07:56 10° ESE visible
19 Aug 6.3 02:39:42 10° NW 02:46:04 70° WSW 02:52:00 10° SSE visible
19 Aug 8.8 20:52:01 10° WNW 20:56:58 23° NNW 21:02:01 10° NNE visible
19 Aug 9.0 22:38:04 10° NW 22:42:32 19° N 22:46:57 10° NE visible
20 Aug 8.1 00:22:10 10° NNW 00:27:50 31° NNE 00:33:18 10° E visible
20 Aug 6.3 02:05:30 10° NW 02:11:55 89° SW 02:17:56 10° SE visible
20 Aug 7.5 03:49:53 10° WNW 03:54:21 21° WSW 03:58:38 10° SSW visible
20 Aug 8.7 20:17:15 10° W 20:22:26 26° NNW 20:27:45 10° NNE visible
20 Aug 9.0 22:03:31 10° NW 22:07:54 19° N 22:12:17 10° NE visible
20 Aug 8.3 23:47:57 10° NNW 23:53:21 27° NNE 23:58:34 10° E visible
21 Aug 6.6 01:31:18 10° NW 01:37:43 73° NE 01:43:43 10° SE visible
21 Aug 7.2 03:15:16 10° NW 03:20:29 28° WSW 03:24:23 14° SSW visible
21 Aug 8.5 19:42:30 10° W 19:47:56 30° NNW 19:53:32 10° NNE visible
21 Aug 9.0 21:28:51 10° NW 21:33:17 19° N 21:37:42 10° NE visible
21 Aug 8.5 23:13:43 10° NNW 23:18:49 24° NNE 23:23:48 10° ENE visible
22 Aug 6.9 00:57:08 10° NW 01:03:27 58° NE 01:08:20 16° ESE visible
22 Aug 6.9 02:40:49 10° NW 02:46:32 37° WSW 02:48:40 29° SSW visible
22 Aug 8.9 20:54:08 10° NW 20:58:39 20° N 21:03:13 10° NE visible
22 Aug 8.6 22:39:25 10° NNW 22:44:15 22° NNE 22:49:01 10° ENE visible
23 Aug 7.3 00:22:58 10° NNW 00:29:08 47° NE 00:33:22 19° ESE visible
23 Aug 6.5 02:06:28 10° NW 02:12:33 50° WSW 02:13:45 44° SSW visible
23 Aug 8.8 20:19:21 10° WNW 20:24:03 21° NNW 20:28:48 10° NNE visible
23 Aug 8.7 22:05:03 10° NW 22:09:40 20° NNE 22:14:14 10° ENE visible
